| time (UTC) | temp F | wind direction | speed knots | gust knots | rain 1hr in | rain 24hr in | rain mn in | humidity % | barometer mb |
| 20260507074546 | 0 | 0.0 | 0.0 | 0.00 | 0.00 | 0.00 | 1002.1 | ||
| 20260507074520 | 40 | 305 | 0.0 | 0.0 | 0.00 | 1.25 | 1.12 | 100 | 1004.6 |
| 20260507073038 | 0 | 0.0 | 0.0 | 0.00 | 0.00 | 0.00 | 1002.0 | ||
| 20260507073016 | 40 | 358 | 0.0 | 0.0 | 0.00 | 1.26 | 1.12 | 100 | 1004.5 |
| 20260507071518 | 0 | 0.0 | 0.0 | 0.00 | 0.00 | 0.00 | 1002.0 | ||
| 20260507071511 | 40 | 358 | 0.0 | 0.0 | 0.00 | 1.26 | 1.12 | 100 | 1004.4 |
| 20260507070014 | 0 | 0.0 | 0.0 | 0.00 | 0.00 | 0.00 | 1002.0 | ||
| 20260507070011 | 40 | 359 | 0.0 | 1.7 | 0.00 | 1.26 | 1.12 | 100 | 1004.2 |
| 20260507064603 | 41 | 18 | 0.9 | 6.1 | 0.00 | 1.26 | 1.12 | 100 | 1004.1 |
| 20260507064510 | 0 | 0.0 | 0.0 | 0.00 | 0.00 | 0.00 | 1002.1 | ||
| 20260507063041 | 41 | 348 | 1.7 | 8.7 | 0.00 | 1.30 | 1.12 | 100 | 1004.3 |
| 20260507063006 | 0 | 0.0 | 0.0 | 0.00 | 0.00 | 0.00 | 1002.0 | ||
| 20260507061527 | 41 | 329 | 1.7 | 4.3 | 0.00 | 1.30 | 1.12 | 100 | 1004.3 |
| 20260507061504 | 0 | 0.0 | 0.0 | 0.00 | 0.00 | 0.00 | 1002.1 | ||
| 20260507060021 | 41 | 338 | 0.9 | 10.4 | 0.00 | 1.30 | 1.12 | 100 | 1004.4 |
| 20260507054604 | 0 | 0.0 | 0.0 | 0.00 | 0.00 | 0.00 | 1002.3 | ||
| 20260507054516 | 41 | 49 | 0.0 | 3.5 | 0.00 | 1.30 | 1.12 | 100 | 1004.5 |
| 20260507053049 | 0 | 0.0 | 0.0 | 0.00 | 0.00 | 0.00 | 1002.7 | ||
| 20260507053013 | 41 | 2 | 0.0 | 6.1 | 0.00 | 1.31 | 1.12 | 100 | 1004.0 |
| 20260507051544 | 0 | 0.0 | 0.0 | 0.00 | 0.00 | 0.00 | 1002.6 | ||
| 20260507051508 | 42 | 20 | 0.0 | 7.8 | 0.00 | 1.31 | 1.12 | 100 | 1004.3 |
| 20260507050028 | 0 | 0.0 | 0.0 | 0.00 | 0.00 | 0.00 | 1002.8 | ||
| 20260507050008 | 42 | 351 | 5.2 | 9.6 | 0.00 | 1.31 | 1.12 | 100 | 1004.4 |
| 20260507044559 | 42 | 34 | 1.7 | 6.1 | 0.01 | 1.31 | 1.12 | 100 | 1004.5 |
| 20260507044522 | 0 | 0.0 | 0.0 | 0.00 | 0.00 | 0.00 | 1002.7 | ||
| 20260507043101 | 42 | 326 | 0.0 | 4.3 | 0.02 | 1.33 | 1.12 | 100 | 1004.6 |
| 20260507043018 | 0 | 0.0 | 0.0 | 0.00 | 0.00 | 0.00 | 1002.9 | ||
| 20260507041548 | 42 | 342 | 0.0 | 2.6 | 0.05 | 1.33 | 1.12 | 100 | 1004.6 |
| 20260507041513 | 0 | 0.0 | 0.0 | 0.00 | 0.00 | 0.00 | 1002.9 | ||
| 20260507040029 | 42 | 347 | 0.0 | 4.3 | 0.08 | 1.33 | 1.12 | 100 | 1004.5 |
| 20260507040008 | 0 | 0.0 | 0.0 | 0.00 | 0.00 | 0.00 | 1002.9 | ||
| 20260507034515 | 42 | 353 | 1.7 | 7.8 | 0.10 | 1.32 | 1.12 | 100 | 1004.6 |
| 20260507034504 | 0 | 0.0 | 0.0 | 0.00 | 0.00 | 0.00 | 1003.1 | ||
| 20260507033101 | 0 | 0.0 | 0.0 | 0.00 | 0.00 | 0.00 | 1003.3 | ||
| 20260507033012 | 42 | 346 | 2.6 | 9.6 | 0.12 | 1.31 | 1.11 | 100 | 1004.9 |
| 20260507031602 | 0 | 0.0 | 0.0 | 0.00 | 0.00 | 0.00 | 1003.5 | ||
| 20260507031505 | 43 | 200 | 0.0 | 5.2 | 0.11 | 1.28 | 1.08 | 100 | 1005.0 |
| 20260507030039 | 0 | 0.0 | 0.0 | 0.00 | 0.00 | 0.00 | 1003.4 | ||
| 20260507030000 | 43 | 318 | 1.7 | 6.1 | 0.10 | 1.25 | 1.05 | 100 | 1004.9 |
| 20260507024604 | 43 | 319 | 0.0 | 4.3 | 0.08 | 1.22 | 1.02 | 100 | 1004.8 |
| 20260507024536 | 0 | 0.0 | 0.0 | 0.00 | 0.00 | 0.00 | 1003.4 | ||
| 20260507023109 | 43 | 326 | 2.6 | 9.6 | 0.06 | 1.19 | 0.99 | 100 | 1004.7 |
| 20260507023030 | 0 | 0.0 | 0.0 | 0.00 | 0.00 | 0.00 | 1003.4 | ||
| 20260507021552 | 43 | 337 | 2.6 | 7.8 | 0.06 | 1.17 | 0.97 | 100 | 1004.5 |
| 20260507021524 | 0 | 0.0 | 0.0 | 0.00 | 0.00 | 0.00 | 1003.3 | ||
| 20260507020044 | 43 | 331 | 0.0 | 4.3 | 0.05 | 1.14 | 0.95 | 100 | 1004.5 |
| 20260507020021 | 0 | 0.0 | 0.0 | 0.00 | 0.00 | 0.00 | 1003.3 | ||
| 20260507014532 | 43 | 300 | 0.0 | 0.0 | 0.06 | 1.13 | 0.94 | 100 | 1004.4 |
| 20260507014514 | 0 | 0.0 | 0.0 | 0.00 | 0.00 | 0.00 | 1003.2 | ||
| 20260507013032 | 44 | 301 | 0.0 | 0.0 | 0.07 | 1.12 | 0.93 | 100 | 1004.4 |
| 20260507013009 | 0 | 0.0 | 0.0 | 0.00 | 0.00 | 0.00 | 1003.2 | ||
| 20260507011555 | 44 | 330 | 0.0 | 4.3 | 0.07 | 1.11 | 0.91 | 100 | 1004.7 |
| 20260507011507 | 0 | 0.0 | 0.0 | 0.00 | 0.00 | 0.00 | 1003.3 | ||
| 20260507010051 | 44 | 317 | 0.0 | 2.6 | 0.08 | 1.10 | 0.90 | 100 | 1004.6 |
| 20260507010045 | 0 | 0.0 | 0.0 | 0.00 | 0.00 | 0.00 | 1003.4 | ||
| 20260507004542 | 0 | 0.0 | 0.0 | 0.00 | 0.00 | 0.00 | 1003.4 | ||
| 20260507004533 | 44 | 291 | 0.0 | 4.3 | 0.08 | 1.08 | 0.88 | 100 | 1004.7 |
| 20260507003038 | 0 | 0.0 | 0.0 | 0.00 | 0.00 | 0.00 | 1003.5 | ||
| 20260507003028 | 44 | 321 | 0.0 | 5.2 | 0.09 | 1.06 | 0.86 | 100 | 1004.9 |
| 20260507001546 | 0 | 0.0 | 0.0 | 0.00 | 0.00 | 0.00 | 1003.6 | ||
| 20260507001525 | 44 | 313 | 0.0 | 4.3 | 0.08 | 1.04 | 0.84 | 100 | 1004.8 |
| 20260507000027 | 45 | 299 | 0.0 | 0.0 | 0.09 | 1.02 | 0.82 | 100 | 1004.6 |
| 20260506234530 | 0 | 0.0 | 0.0 | 0.00 | 0.00 | 0.00 | 1003.4 | ||
| 20260506234515 | 45 | 283 | 0.0 | 1.7 | 0.08 | 0.99 | 0.79 | 100 | 1004.7 |
| 20260506233020 | 0 | 0.0 | 0.0 | 0.00 | 0.00 | 0.00 | 1003.3 | ||
| 20260506233011 | 45 | 10 | 0.0 | 3.5 | 0.07 | 0.98 | 0.77 | 100 | 1004.6 |
| 20260506231515 | 0 | 0.0 | 0.0 | 0.00 | 0.00 | 0.00 | 1003.3 | ||
| 20260506231507 | 45 | 329 | 0.0 | 0.0 | 0.08 | 0.97 | 0.76 | 100 | 1004.5 |
| 20260506230058 | 0 | 0.0 | 0.0 | 0.00 | 0.00 | 0.00 | 1003.3 | ||
| 20260506230003 | 46 | 338 | 0.0 | 2.6 | 0.07 | 0.94 | 0.73 | 100 | 1004.5 |
| 20260506224603 | 46 | 139 | 0.0 | 2.6 | 0.09 | 0.93 | 0.72 | 100 | 1004.2 |
| 20260506224552 | 0 | 0.0 | 0.0 | 0.00 | 0.00 | 0.00 | 1003.4 | ||
| 20260506223115 | 46 | 355 | 0.0 | 4.3 | 0.08 | 0.97 | 0.71 | 100 | 1004.4 |
| 20260506223048 | 0 | 0.0 | 0.0 | 0.00 | 0.00 | 0.00 | 1003.2 | ||
| 20260506221552 | 46 | 351 | 0.9 | 6.1 | 0.08 | 0.95 | 0.69 | 100 | 1004.6 |
| 20260506221544 | 0 | 0.0 | 0.0 | 0.00 | 0.00 | 0.00 | 1003.2 | ||
| 20260506220049 | 0 | 0.0 | 0.0 | 0.00 | 0.00 | 0.00 | 1003.4 | ||
| 20260506214543 | 47 | 77 | 0.0 | 0.0 | 0.06 | 0.90 | 0.64 | 100 | 1004.3 |
| 20260506214535 | 0 | 0.0 | 0.0 | 0.00 | 0.00 | 0.00 | 1003.4 | ||
| 20260506213040 | 47 | 77 | 0.0 | 0.0 | 0.06 | 0.91 | 0.63 | 100 | 1004.0 |
| 20260506213030 | 0 | 0.0 | 0.0 | 0.00 | 0.00 | 0.00 | 1002.9 | ||
| 20260506211543 | 47 | 77 | 0.0 | 0.0 | 0.05 | 0.89 | 0.61 | 100 | 1004.1 |
| 20260506211526 | 0 | 0.0 | 0.0 | 0.00 | 0.00 | 0.00 | 1002.9 | ||
| 20260506210039 | 47 | 77 | 0.0 | 0.0 | 0.06 | 0.88 | 0.60 | 100 | 1004.1 |
| 20260506210002 | 0 | 0.0 | 0.0 | 0.00 | 0.00 | 0.00 | 1002.7 | ||
| 20260506204559 | 0 | 0.0 | 0.0 | 0.00 | 0.00 | 0.00 | 1002.7 | ||
| 20260506204532 | 47 | 65 | 0.0 | 0.9 | 0.05 | 0.86 | 0.57 | 100 | 1004.2 |
| 20260506203109 | 0 | 0.0 | 0.0 | 0.00 | 0.00 | 0.00 | 1002.7 | ||
| 20260506203031 | 46 | 45 | 0.0 | 0.0 | 0.06 | 0.88 | 0.56 | 100 | 1004.0 |
| 20260506201534 | 0 | 0.0 | 0.0 | 0.00 | 0.00 | 0.00 | 1002.5 | ||
| 20260506201523 | 46 | 45 | 0.0 | 0.0 | 0.07 | 0.87 | 0.56 | 100 | 1004.4 |
| 20260506200017 | 47 | 58 | 0.0 | 0.0 | 0.10 | 0.85 | 0.54 | 100 | 1004.5 |
| 20260506200013 | 0 | 0.0 | 0.0 | 0.00 | 0.00 | 0.00 | 1002.3 | ||
| 20260506194607 | 47 | 77 | 0.0 | 0.0 | 0.13 | 0.84 | 0.53 | 100 | 1004.6 |
| 20260506194508 | 0 | 0.0 | 0.0 | 0.00 | 0.00 | 0.00 | 1002.7 | ||
| 20260506193052 | 46 | 313 | 5.2 | 7.8 | 0.16 | 0.82 | 0.51 | 100 | 1005.7 |
| 20260506191551 | 0 | 0.0 | 0.0 | 0.00 | 0.00 | 0.00 | 1002.8 | ||
| 20260506191535 | 46 | 130 | 0.9 | 6.1 | 0.16 | 0.79 | 0.48 | 100 | 1004.6 |
| 20260506190048 | 0 | 0.0 | 0.0 | 0.00 | 0.00 | 0.00 | 1002.6 | ||
| 20260506190031 | 47 | 41 | 0.0 | 2.6 | 0.16 | 0.76 | 0.45 | 100 | 1005.1 |
| 20260506184548 | 0 | 0.0 | 0.0 | 0.00 | 0.00 | 0.00 | 1003.0 | ||
| 20260506184527 | 47 | 102 | 0.0 | 3.5 | 0.14 | 0.71 | 0.40 | 100 | 1005.0 |
| 20260506183032 | 0 | 0.0 | 0.0 | 0.00 | 0.00 | 0.00 | 1002.6 | ||
| 20260506183025 | 47 | 81 | 0.0 | 2.6 | 0.11 | 0.66 | 0.35 | 100 | 1005.0 |
| 20260506181528 | 0 | 0.0 | 0.0 | 0.00 | 0.00 | 0.00 | 1002.2 | ||
| 20260506181521 | 47 | 95 | 0.9 | 3.5 | 0.11 | 0.63 | 0.32 | 100 | 1004.8 |
| 20260506180024 | 0 | 0.0 | 0.0 | 0.00 | 0.00 | 0.00 | 1002.8 | ||
| 20260506180020 | 47 | 112 | 1.7 | 6.1 | 0.10 | 0.60 | 0.28 | 100 | 1004.6 |
| 20260506174520 | 0 | 0.0 | 0.0 | 0.00 | 0.00 | 0.00 | 1002.3 | ||
| 20260506174509 | 47 | 119 | 0.0 | 2.6 | 0.08 | 0.56 | 0.26 | 100 | 1005.0 |
| 20260506173100 | 0 | 0.0 | 0.0 | 0.00 | 0.00 | 0.00 | 1002.7 | ||
| 20260506173005 | 47 | 117 | 1.7 | 5.2 | 0.08 | 0.55 | 0.24 | 100 | 1004.8 |
| 20260506171605 | 0 | 0.0 | 0.0 | 0.00 | 0.00 | 0.00 | 1003.0 | ||
| 20260506171501 | 47 | 51 | 0.0 | 0.0 | 0.08 | 0.52 | 0.21 | 100 | 1005.8 |
| 20260506170052 | 0 | 0.0 | 0.0 | 0.00 | 0.00 | 0.00 | 1003.4 | ||
| 20260506170040 | 47 | 126 | 0.0 | 2.6 | 0.09 | 0.50 | 0.19 | 100 | 1005.9 |
| 20260506164553 | 0 | 0.0 | 0.0 | 0.00 | 0.00 | 0.00 | 1004.0 | ||
| 20260506164537 | 46 | 133 | 0.9 | 3.5 | 0.09 | 0.49 | 0.18 | 100 | 1005.9 |
| 20260506163057 | 0 | 0.0 | 0.0 | 0.00 | 0.00 | 0.00 | 1003.4 | ||
| 20260506163022 | 46 | 120 | 0.0 | 2.6 | 0.08 | 0.47 | 0.16 | 100 | 1006.4 |
| 20260506161539 | 0 | 0.0 | 0.0 | 0.00 | 0.00 | 0.00 | 1004.7 | ||
| 20260506161521 | 46 | 349 | 6.1 | 15.6 | 0.06 | 0.44 | 0.13 | 100 | 1007.7 |
| 20260506160036 | 0 | 0.0 | 0.0 | 0.00 | 0.00 | 0.00 | 1005.3 | ||
| 20260506160013 | 46 | 135 | 0.0 | 1.7 | 0.04 | 0.41 | 0.10 | 100 | 1006.8 |
| 20260506154536 | 0 | 0.0 | 0.0 | 0.00 | 0.00 | 0.00 | 1004.3 | ||
| 20260506154506 | 46 | 143 | 0.0 | 0.0 | 0.05 | 0.40 | 0.09 | 100 | 1006.9 |
| 20260506153011 | 0 | 0.0 | 0.0 | 0.00 | 0.00 | 0.00 | 1004.2 | ||
| 20260506153002 | 46 | 143 | 0.0 | 0.0 | 0.09 | 0.39 | 0.08 | 100 | 1006.8 |
| 20260506151558 | 46 | 66 | 0.0 | 0.0 | 0.10 | 0.38 | 0.07 | 100 | 1007.1 |
| 20260506151509 | 0 | 0.0 | 0.0 | 0.00 | 0.00 | 0.00 | 1004.5 | ||
| 20260506150055 | 46 | 46 | 0.0 | 2.6 | 0.11 | 0.37 | 0.06 | 100 | 1007.5 |
| 20260506150006 | 0 | 0.0 | 0.0 | 0.00 | 0.00 | 0.00 | 1004.9 | ||
| 20260506144559 | 0 | 0.0 | 0.0 | 0.00 | 0.00 | 0.00 | 1005.4 | ||
| 20260506144552 | 46 | 37 | 0.0 | 1.7 | 0.11 | 0.35 | 0.04 | 100 | 1008.0 |
| 20260506143055 | 0 | 0.0 | 0.0 | 0.00 | 0.00 | 0.00 | 1005.5 | ||
| 20260506143045 | 46 | 326 | 3.5 | 8.7 | 0.08 | 0.31 | 0.31 | 100 | 1008.3 |
| 20260506141551 | 0 | 0.0 | 0.0 | 0.00 | 0.00 | 0.00 | 1005.5 | ||
| 20260506141541 | 47 | 57 | 0.0 | 0.0 | 0.05 | 0.27 | 0.27 | 100 | 1007.8 |
| 20260506140046 | 0 | 0.0 | 0.0 | 0.00 | 0.00 | 0.00 | 1005.2 | ||
| 20260506140020 | 48 | 101 | 0.0 | 0.0 | 0.03 | 0.25 | 0.25 | 100 | 1007.6 |
| 20260506134542 | 0 | 0.0 | 0.0 | 0.00 | 0.00 | 0.00 | 1005.4 | ||
| 20260506134527 | 48 | 55 | 0.0 | 0.0 | 0.03 | 0.24 | 0.24 | 100 | 1007.6 |
| 20260506133054 | 48 | 39 | 0.0 | 0.0 | 0.02 | 0.23 | 0.23 | 100 | 1007.9 |
| 20260506133038 | 0 | 0.0 | 0.0 | 0.00 | 0.00 | 0.00 | 1005.8 | ||
| 20260506131606 | 48 | 68 | 0.0 | 0.0 | 0.01 | 0.22 | 0.22 | 100 | 1007.8 |
| 20260506131519 | 0 | 0.0 | 0.0 | 0.00 | 0.00 | 0.00 | 1005.9 | ||
| 20260506130033 | 48 | 68 | 0.0 | 0.0 | 0.01 | 0.22 | 0.22 | 100 | 1008.1 |
| 20260506130011 | 0 | 0.0 | 0.0 | 0.00 | 0.00 | 0.00 | 1005.6 | ||
| 20260506124549 | 0 | 0.0 | 0.0 | 0.00 | 0.00 | 0.00 | 1005.8 | ||
| 20260506124528 | 48 | 68 | 0.0 | 0.0 | 0.00 | 0.21 | 0.21 | 100 | 1008.2 |
| 20260506123048 | 0 | 0.0 | 0.0 | 0.00 | 0.00 | 0.00 | 1005.7 | ||
| 20260506123024 | 48 | 68 | 0.0 | 0.0 | 0.00 | 0.21 | 0.21 | 100 | 1008.4 |
| 20260506121525 | 0 | 0.0 | 0.0 | 0.00 | 0.00 | 0.00 | 1005.7 | ||
| 20260506121519 | 47 | 82 | 0.0 | 0.0 | 0.00 | 0.21 | 0.21 | 100 | 1008.0 |
| 20260506120020 | 0 | 0.0 | 0.0 | 0.00 | 0.00 | 0.00 | 1005.6 | ||
| 20260506120015 | 47 | 82 | 0.0 | 0.0 | 0.00 | 0.21 | 0.21 | 100 | 1008.0 |
| 20260506114521 | 47 | 82 | 0.0 | 0.0 | 0.00 | 0.21 | 0.21 | 100 | 1008.2 |
| 20260506114516 | 0 | 0.0 | 0.0 | 0.00 | 0.00 | 0.00 | 1005.5 | ||
| 20260506113011 | 0 | 0.0 | 0.0 | 0.00 | 0.00 | 0.00 | 1006.1 | ||
| 20260506113007 | 47 | 82 | 0.0 | 0.0 | 0.00 | 0.21 | 0.21 | 100 | 1008.5 |
| 20260506111510 | 0 | 0.0 | 0.0 | 0.00 | 0.00 | 0.00 | 1005.9 | ||
| 20260506111502 | 46 | 6 | 0.9 | 2.6 | 0.00 | 0.21 | 0.21 | 100 | 1008.0 |
| 20260506110050 | 46 | 281 | 0.0 | 0.0 | 0.00 | 0.21 | 0.21 | 100 | 1008.2 |
| 20260506110004 | 0 | 0.0 | 0.0 | 0.00 | 0.00 | 0.00 | 1005.8 | ||
| 20260506104608 | 0 | 0.0 | 0.0 | 0.00 | 0.00 | 0.00 | 1005.7 | ||
| 20260506104542 | 46 | 303 | 0.0 | 0.0 | 0.00 | 0.21 | 0.21 | 100 | 1008.2 |
| 20260506103103 | 0 | 0.0 | 0.0 | 0.00 | 0.00 | 0.00 | 1005.7 | ||
| 20260506103037 | 46 | 302 | 0.0 | 2.6 | 0.00 | 0.21 | 0.21 | 100 | 1008.2 |
| 20260506101533 | 46 | 180 | 0.0 | 0.0 | 0.00 | 0.21 | 0.21 | 100 | 1007.8 |
| 20260506100034 | 46 | 256 | 0.0 | 4.3 | 0.00 | 0.21 | 0.21 | 100 | 1008.7 |
| 20260506100031 | 0 | 0.0 | 0.0 | 0.00 | 0.00 | 0.00 | 1005.4 | ||
| 20260506094524 | 46 | 226 | 0.0 | 0.0 | 0.00 | 0.21 | 0.21 | 100 | 1008.2 |
| 20260506094508 | 0 | 0.0 | 0.0 | 0.00 | 0.00 | 0.00 | 1005.3 | ||
| 20260506093019 | 46 | 210 | 0.0 | 0.0 | 0.00 | 0.21 | 0.21 | 100 | 1008.0 |
| 20260506093004 | 0 | 0.0 | 0.0 | 0.00 | 0.00 | 0.00 | 1005.1 | ||
| 20260506091600 | 0 | 0.0 | 0.0 | 0.00 | 0.00 | 0.00 | 1005.3 | ||
| 20260506091516 | 46 | 324 | 0.0 | 0.0 | 0.01 | 0.21 | 0.21 | 100 | 1007.9 |
| 20260506090109 | 0 | 0.0 | 0.0 | 0.00 | 0.00 | 0.00 | 1005.3 | ||
| 20260506090059 | 46 | 324 | 0.0 | 0.0 | 0.01 | 0.21 | 0.21 | 100 | 1008.0 |
| 20260506084603 | 0 | 0.0 | 0.0 | 0.00 | 0.00 | 0.00 | 1005.4 | ||
| 20260506084601 | 47 | 325 | 0.0 | 0.0 | 0.02 | 0.21 | 0.21 | 100 | 1008.0 |
| 20260506083109 | 47 | 316 | 0.0 | 0.0 | 0.02 | 0.21 | 0.21 | 100 | 1008.2 |
| 20260506083046 | 0 | 0.0 | 0.0 | 0.00 | 0.00 | 0.00 | 1005.4 | ||
| 20260506081550 | 47 | 317 | 0.0 | 0.0 | 0.01 | 0.20 | 0.20 | 100 | 1007.9 |
| 20260506081544 | 0 | 0.0 | 0.0 | 0.00 | 0.00 | 0.00 | 1005.6 |